STARLINK-31100 (58714 NORAD) Tracking and Keplerian Element Data

This shows tracking and keplerian element data for the satellite.

Feedback or suggestion? Click here.




ElementValue
Catalog58714
NameSTARLINK-31100
Epoch Orbit281
Epoch Day13.25002315
Epoch Year2024
RAAN198.7823
Inclination53.1607
Eccentricity0.0001142
Argument of Perigee102.5843
Mean Anonmoly134.5427
Mean Motion15.51449698
Decay Rate-0.01744919
L11 58714U 24002K 24013.25002315 -.01744919 00000+0 -32633-1 0 9995
L22 58714 53.1607 198.7823 0001142 102.5843 134.5427 15.51449698 2817



Live tracking and technical data element details for STARLINK-31100 (NORAD 58714). STARLINK-31100 can be tracked NOW for your location showing map with azimuth and elevation plus other details from your city location.







IsCatalogInMostPopularTable: catalog: 58714, numindb: 27
Update: records affected: 1



GetName: 58714 STARLINK-31100

Hit Count: updated at: Wed, 17 Apr 2024 03:11:55 GMT